Location: *
(44.3925°N, 5.4708°E)
Time: 15:12:27
(UTC+00:00)

Cosmos 2297 Rocket - Pass Details

Date: 18 September 2019
Orbit: 841 x 842 km, 71.0° (Epoch: 13 October)

Event Time Altitude Azimuth Distance (km) Brightness Sun altitude
Rises 19:11:10 0° 182° (S) 3,383 5.2 -16.1°
Reaches altitude 10° 19:13:42 10° 176° (S) 2,453 4.4 -16.5°
Maximum altitude 19:18:58 42° 107° (ESE) 1,187 2.5 -17.4°
Drops below altitude 10° 19:24:15 10° 38° (NE) 2,469 4.5 -18.3°
Sets 19:26:48 0° 32° (NNE) 3,408 5.3 -18.7°
